STARLINK-35146

Last updated on Tue Sep 16 2025 00:02:07 GMT+0000 (Coordinated Universal Time)

1 65421U 25192T 25258.58341435 -.01480571 00000+0 -15607-1 0 9999 2 65421 53.1595 338.0742 0001159 69.4844 181.2993 15.66413265 3629
UTC large
Height (km)
Speed (km/s)
/
Latitude / Longitude
Inclination (degrees)
Orbital Period (minutes)
Azimuth
Elevation
Range (km)
Doppler Factor

Next 0 passes for location: London (51.5072 / 0.1276)

Sorry there are no passes over London.